Orbital Elements at Epoch 2459000.5 (2020-May-31.0) TDB
Reference: JPL 18 (heliocentric ecliptic J2000)
Element | Value | Uncertainty (1-sigma) | Units |
e | .1495924892032714 | 6.1822e-08 | |
a | 2.372847561495503 | 1.9694e-08 | au |
q | 2.017887388271478 | 1.4279e-07 | au |
i | 6.072592297653323 | 7.4548e-06 | deg |
node | 25.03224122381046 | 4.7659e-05 | deg |
peri | 300.4972366479263 | 5.3949e-05 | deg |
M | 130.8288652365641 | 2.6834e-05 | deg |
tp | 2458515.318471006128 (2019-Jan-31.81847101) | 9.6996e-05 | TDB |
period | 1335.067380749385 3.66 | 1.6621e-05 4.551e-08 | d yr |
n | .2696493114811396 | 3.3571e-09 | deg/d |
Q | 2.727807734719528 | 2.2641e-08 | au |
|
| | Orbit Determination Parameters
Additional Information
|